Weather History for Dayton Wright, OH

Change the Weather History Date:

Sunday, November 25, 2012

  Actual Average (KFFO) Record (KFFO)
Temperature  
Mean Temperature 36 °F -  
Max Temperature 45 °F 47 °F 65 °F (2006)
Min Temperature 26 °F 31 °F 12 °F (2005)
Degree Days  
Heating Degree Days 30    
Moisture  
Dew Point 24 °F    
Average Humidity 63    
Maximum Humidity 78    
Minimum Humidity 46    
Precipitation  
Precipitation 0.00 in - - ()
Sea Level Pressure  
Sea Level Pressure 30.00 in    
Wind  
Wind Speed 6 mph (SSW)    
Max Wind Speed 14 mph    
Max Gust Speed 22 mph    
Visibility 10 miles    
Events      
Averages and records for this station are not official NWS values.
T = Trace of Precipitation, MM = Missing Value Source: NWS Daily Summary

Daily Weather History Graph

Daily Weather History Graph

Search for Another Location

Airport:

Trip Planner

Search our weather history database for the weather conditions in past years. The results will help you decide how hot, cold, wet, or windy it might be!

Date:

Astronomy

Nov. 25, 2012 Rise Set
Actual Time 7:32 AM EST 5:15 PM EST
Civil Twilight 7:03 AM EST 5:44 PM EST
Nautical Twilight 6:30 AM EST 6:17 PM EST
Astronomical Twilight 5:57 AM EST 6:50 PM EST
Moon 3:31 PM EST 4:46 AM EST
Length of Visible Light 10h 41m
Length of Day
9h 42m
Waxing Gibbous, 93% of the Moon is Illuminated
Nov 25
Waxing Gibbous
Nov 28
Full
Dec 6
Last Quarter
Dec 13
New
Dec 20
First Quarter

Hourly Weather History & Observations

Time (EST) Temp. Windchill Dew Point Humidity Pressure Visibility Wind Dir Wind Speed Gust Speed Precip Events Conditions
12:53 AM 26.1 °F 20.5 °F 19.9 °F 78% 30.11 in 10.0 mi South 4.6 mph - N/A   Clear
1:53 AM 27.0 °F 21.6 °F 21.0 °F 78% 30.09 in 10.0 mi South 4.6 mph - N/A   Overcast
2:53 AM 28.0 °F 22.8 °F 19.9 °F 72% 30.09 in 10.0 mi SSW 4.6 mph - N/A   Partly Cloudy
3:53 AM 27.0 °F 20.5 °F 19.9 °F 75% 30.08 in 10.0 mi SSW 5.8 mph - N/A   Clear
4:53 AM 27.0 °F 20.5 °F 21.0 °F 78% 30.06 in 10.0 mi South 5.8 mph - N/A   Partly Cloudy
5:53 AM 27.0 °F 18.0 °F 21.0 °F 78% 30.05 in 10.0 mi South 9.2 mph - N/A   Scattered Clouds
6:53 AM 28.0 °F 18.6 °F 21.9 °F 78% 30.02 in 10.0 mi South 10.4 mph - N/A   Clear
7:53 AM 28.9 °F 18.6 °F 21.9 °F 75% 30.00 in 10.0 mi SSW 12.7 mph - N/A   Mostly Cloudy
8:53 AM 30.0 °F 20.5 °F 21.9 °F 72% 30.00 in 10.0 mi SSW 11.5 mph 19.6 mph N/A   Mostly Cloudy
9:53 AM 32.0 °F 24.8 °F 23.0 °F 69% 30.00 in 10.0 mi SSW 8.1 mph - N/A   Clear
10:53 AM 34.0 °F 26.6 °F 23.0 °F 64% 29.99 in 10.0 mi SW 9.2 mph 17.3 mph N/A   Clear
11:53 AM 39.0 °F 31.4 °F 23.0 °F 53% 29.95 in 10.0 mi SW 12.7 mph 20.7 mph N/A   Clear
12:53 PM 41.0 °F 33.5 °F 24.1 °F 51% 29.92 in 10.0 mi WSW 13.8 mph 20.7 mph N/A   Clear
1:53 PM 41.0 °F 34.3 °F 24.1 °F 51% 29.91 in 10.0 mi SW 11.5 mph 21.9 mph N/A   Clear
2:53 PM 44.1 °F 39.0 °F 25.0 °F 47% 29.91 in 10.0 mi SSW 9.2 mph - N/A   Clear
3:53 PM 45.0 °F 40.1 °F 25.0 °F 46% 29.92 in 10.0 mi WSW 9.2 mph - N/A   Clear
4:53 PM 44.1 °F 41.5 °F 25.0 °F 47% 29.94 in 10.0 mi West 4.6 mph - N/A   Partly Cloudy
5:53 PM 43.0 °F 39.5 °F 26.1 °F 51% 29.94 in 10.0 mi SW 5.8 mph - N/A   Clear
6:53 PM 39.0 °F 35.7 °F 27.0 °F 62% 29.96 in 10.0 mi SSW 4.6 mph - N/A   Clear
7:53 PM 42.1 °F - 26.1 °F 53% 29.99 in 10.0 mi Calm Calm - N/A   Clear
8:53 PM 42.1 °F - 26.1 °F 53% 30.00 in 10.0 mi Calm Calm - N/A   Scattered Clouds
9:53 PM 39.9 °F - 27.0 °F 60% 30.00 in 10.0 mi Calm Calm - N/A   Mostly Cloudy
10:53 PM 41.0 °F - 28.0 °F 60% 30.02 in 10.0 mi Calm Calm - N/A   Overcast
11:53 PM 42.1 °F - 28.0 °F 58% 30.03 in 10.0 mi Calm Calm - N/A   Partly Cloudy